Wind_Speed
3 2 2 2 1 2 2 1 1 1 1 1 1 2 2 3 3 3 3 4 5 4 4 4 4 4 5 5 4 5 5 5 6 6 6 7 7 7 6 7 7 6 7
3 3 2 1 1 1 1 1 1 1 1 1 0 1 2 2 2 2 2 4 5 5 5 5 5 5 4 5 5 5 6 6 7 7 7 7 7 7 8 8 8 8 8
4 3 2 2 2 2 1 1 1 1 1 1 1 2 2 2 2 2 2 3 4 5 6 6 6 6 5 5 5 6 6 7 7 8 8 8 8 8 9 9 9 9 9
4 4 3 2 2 2 2 2 2 2 1 1 2 2 3 3 3 3 2 3 4 5 5 6 6 6 6 6 6 7 7 8 9 9 9 9 9 9 9 10 10 10 10
4 4 3 3 2 2 3 2 2 2 2 2 2 2 3 3 3 3 3 3 4 5 5 6 6 7 7 7 7 8 9 9 9 10 10 10 10 10 11 11 11 11 11
4 5 4 4 3 3 3 3 2 2 2 2 3 3 3 3 3 3 3 4 4 5 6 6 6 7 8 8 8 9 9 9 10 10 11 12 11 12 12 12 12 12 12
4 4 4 4 3 3 4 3 3 3 3 3 3 3 3 3 3 3 4 4 5 5 6 7 7 7 8 9 10 10 10 10 11 11 11 13 12 12 12 12 12 12 12
3 4 3 3 3 3 3 4 3 3 3 3 3 3 3 3 4 4 4 4 5 6 6 6 7 8 8 9 10 10 10 10 11 11 11 12 12 12 12 12 12 12 13
4 3 3 3 3 3 3 3 3 3 3 3 3 3 4 4 3 4 4 4 5 6 6 6 6 7 9 10 10 9 9 9 10 10 10 11 11 11 12 12 12 12 12
3 3 3 3 3 3 3 3 3 4 4 4 4 4 4 4 3 4 4 4 4 5 6 6 7 8 8 9 9 9 9 9 9 9 10 11 11 11 12 12 12 13 12
3 3 3 3 3 3 3 2 3 3 4 4 4 4 4 4 3 4 4 4 4 5 6 6 7 7 7 8 8 9 9 9 9 9 9 10 11 11 12 12 13 14 14
3 3 3 3 3 3 3 3 3 4 4 4 4 4 4 4 4 5 5 5 5 5 6 6 7 7 7 7 8 9 9 9 9 9 9 10 11 12 12 13 15 15 14
4 4 3 3 3 3 3 3 4 3 3 4 4 4 4 4 5 5 6 5 5 6 6 6 7 8 8 8 8 8 8 8 9 9 9 9 10 11 12 13 13 14 14
4 4 4 3 3 4 4 4 4 4 4 4 4 4 4 5 5 6 6 6 6 6 7 7 7 8 8 8 8 8 8 8 9 9 9 9 10 11 11 12 13 14 15
5 4 4 4 4 4 5 5 5 5 5 5 5 5 5 6 6 6 6 6 7 7 7 7 7 7 8 8 8 8 8 9 9 10 10 10 11 11 12 13 13 14 15
6 5 5 4 4 5 5 6 6 6 5 5 5 5 5 6 6 6 6 7 7 7 7 7 8 8 8 8 8 9 9 10 10 11 11 12 11 11 12 13 13 14 14
7 6 6 6 5 6 6 6 6 6 6 5 6 6 6 6 7 7 7 7 8 8 9 9 9 9 9 9 9 10 10 10 11 12 12 13 12 12 13 13 13 13 14
8 7 7 6 6 6 6 6 6 6 6 6 6 7 7 7 8 8 9 9 9 9 10 10 10 10 11 11 11 11 11 11 12 12 13 13 13 13 13 13 13 14 13
7 6 6 6 6 6 6 6 6 7 7 6 6 7 7 8 9 9 9 10 10 10 10 11 11 11 12 12 12 12 12 12 12 12 13 13 13 13 13 13 13 13 13
7 6 6 7 7 7 7 6 7 7 7 7 7 7 7 8 9 10 10 10 10 11 11 11 11 12 12 12 12 12 12 13 13 13 13 14 14 14 14 14 14 14 14
8 8 7 8 8 8 7 7 7 7 7 7 7 8 8 9 10 10 10 10 11 11 11 12 12 13 13 13 13 13 13 13 14 14 14 14 14 14 14 14 14 15 15
10 9 9 9 9 9 8 8 8 8 8 8 9 9 10 10 10 11 12 12 11 11 12 12 12 13 13 14 14 14 14 15 15 15 15 15 14 14 14 15 15 15 16
11 11 11 10 10 9 9 9 9 9 10 10 10 10 10 11 11 12 12 12 12 12 13 13 13 14 14 15 14 14 15 15 15 15 16 16 16 16 16 16 16 16 17
12 12 12 11 11 11 10 10 10 10 11 11 11 11 12 12 12 13 13 13 13 14 14 14 14 15 16 16 16 16 16 16 15 15 15 16 16 17 17 17 17 17 17
14 13 14 13 12 12 11 11 11 12 12 13 13 13 13 13 13 13 13 14 15 15 15 15 15 16 16 16 17 16 16 16 16 16 15 16 16 17 17 17 17 17 18
14 14 14 14 14 13 13 13 12 12 13 13 14 14 14 14 14 14 14 15 16 16 16 16 16 17 17 17 18 18 18 18 17 17 16 16 16 17 17 17 17 18 19
Wind_Direction
181 180 176 163 173 179 185 177 183 201 211 258 291 293 299 291 293 293 246 234 226 223 231 227 211 224 227 225 228 223 223 228 235 228 222 217 217 219 223 225 229 232 228
203 207 212 192 201 197 206 238 221 217 232 275 329 309 308 306 300 299 241 233 229 232 230 227 227 234 238 239 238 232 231 231 236 235 231 231 227 229 231 232 235 239 238
212 214 219 219 218 219 233 247 243 242 257 293 315 326 318 309 310 305 270 240 240 240 238 233 233 236 239 240 242 242 242 240 242 239 234 235 236 239 238 239 241 241 241
220 219 215 218 219 227 238 238 242 254 267 292 311 320 319 309 304 302 287 256 251 245 247 245 243 239 240 245 247 250 252 251 250 245 241 238 238 242 244 242 241 243 244
223 219 217 219 229 244 247 241 243 245 259 282 297 308 310 308 304 297 286 277 263 256 259 255 248 242 246 250 252 253 257 259 253 252 246 242 241 246 248 244 243 245 245
226 225 222 224 235 250 245 238 245 241 267 293 298 296 296 290 284 281 276 274 268 265 264 263 256 249 251 252 256 259 262 260 259 255 251 245 243 248 249 246 246 249 248
225 220 215 219 230 239 238 239 249 251 270 286 295 296 292 288 273 274 276 272 271 271 266 263 265 260 254 254 260 263 264 265 262 260 257 248 246 246 250 250 250 254 251
231 220 220 219 220 230 233 230 242 254 268 278 290 294 292 290 281 275 277 278 279 273 269 268 268 266 266 262 265 266 266 267 265 264 259 250 250 251 250 250 252 258 257
237 228 221 225 223 225 226 233 250 257 267 276 286 288 287 285 284 274 274 276 280 275 270 270 270 269 269 266 266 268 272 269 267 266 262 253 253 250 249 250 252 255 254
232 229 228 227 231 236 236 249 256 263 269 274 275 279 284 281 277 278 280 274 273 269 269 270 272 274 269 267 268 270 273 271 266 268 263 258 255 252 253 255 255 255 254
229 229 237 231 228 235 244 259 265 268 273 275 275 279 282 274 264 269 271 280 273 269 267 266 266 270 270 269 268 270 275 275 268 268 266 262 259 258 259 258 257 255 259
230 234 242 232 225 228 241 255 261 270 274 276 275 275 273 266 263 270 277 276 267 266 266 263 262 267 269 267 268 271 274 274 276 272 271 268 264 264 264 261 258 260 260
234 237 239 230 231 236 247 257 264 269 273 276 274 269 266 268 268 272 277 277 274 266 261 258 260 265 270 270 269 271 274 272 274 269 271 272 270 270 267 264 263 262 261
241 244 244 241 246 251 255 259 264 270 280 280 277 273 275 274 276 277 276 275 274 267 265 266 267 270 272 273 270 267 270 269 268 269 270 272 270 269 266 263 263 262 260
241 243 242 244 252 261 260 261 268 274 276 275 274 278 280 278 278 282 283 278 275 272 271 271 271 268 270 271 270 270 270 270 270 271 271 271 273 271 270 269 266 264 267
240 241 245 251 261 267 264 265 270 272 269 266 270 274 276 281 283 285 286 282 276 277 278 276 277 276 274 277 279 278 277 273 271 271 269 271 272 270 270 270 269 269 270
241 244 248 258 267 268 269 269 267 264 262 264 270 274 277 281 284 285 286 285 281 279 281 282 281 281 280 282 282 279 278 275 273 271 270 273 271 272 270 269 268 271 272
242 244 248 255 263 269 271 270 262 259 263 267 271 276 280 283 285 287 287 286 285 284 283 282 281 282 283 282 280 278 280 281 277 273 270 269 271 275 277 276 276 276 276
246 247 245 250 257 267 268 264 259 259 265 269 274 280 287 289 289 290 289 286 285 284 284 285 283 282 281 279 279 278 278 280 281 277 275 272 271 273 275 276 277 278 280
243 246 247 251 257 263 263 259 258 260 264 269 275 280 286 289 291 291 290 288 287 285 284 285 284 282 281 281 280 280 280 281 282 279 277 276 273 275 274 273 273 274 276
241 247 254 254 255 257 260 261 264 265 267 272 279 283 286 289 288 289 289 288 287 285 283 283 284 284 284 283 283 283 284 283 282 279 279 280 280 279 277 275 273 273 273
239 247 255 256 255 257 261 265 268 270 271 275 280 283 286 289 289 287 289 289 288 286 284 283 284 285 284 285 285 285 285 285 283 280 280 281 280 279 278 276 274 273 272
242 247 254 255 254 255 258 263 269 273 275 278 280 282 285 286 289 288 288 288 287 287 285 284 285 285 285 286 285 286 286 284 283 281 280 279 279 279 278 275 274 274 273
247 249 252 253 254 256 257 261 268 271 275 277 281 284 285 286 287 287 286 288 289 289 288 288 287 287 287 287 287 287 287 286 283 284 283 280 278 278 278 277 276 276 275
250 251 251 252 253 258 260 263 267 271 274 278 280 282 282 284 286 287 287 288 290 290 289 290 290 290 289 288 289 289 288 286 285 284 283 282 280 279 278 278 278 279 278
251 251 251 252 254 258 260 263 269 272 273 275 277 280 281 282 284 286 286 288 290 290 289 289 289 290 290 290 291 290 289 287 285 284 283 281 280 279 278 278 279 279 278
Height
5862 5862 5862 5863 5863 5863 5864 5864 5864 5864 5865 5865 5865 5865 5865 5865 5865 5864 5864 5866 5867 5868 5869 5870 5871 5872 5872 5873 5873 5874 5875 5876 5876 5877 5877 5878 5879 5880 5881 5882 5883 5884 5885
5862 5862 5862 5863 5863 5863 5863 5864 5864 5864 5864 5865 5865 5865 5865 5865 5865 5864 5864 5865 5867 5868 5868 5869 5870 5871 5872 5872 5873 5874 5874 5875 5875 5876 5877 5877 5878 5879 5880 5881 5882 5883 5883
5861 5861 5862 5862 5863 5863 5863 5863 5864 5864 5864 5864 5864 5864 5864 5864 5864 5865 5865 5866 5866 5867 5868 5869 5869 5870 5871 5871 5872 5873 5873 5874 5874 5874 5875 5876 5877 5878 5878 5879 5880 5881 5882
5860 5861 5861 5861 5862 5862 5863 5863 5863 5863 5864 5864 5864 5864 5864 5864 5864 5864 5865 5865 5866 5866 5867 5868 5868 5869 5870 5871 5871 5872 5872 5872 5872 5873 5874 5875 5876 5876 5877 5878 5879 5879 5880
5860 5860 5861 5861 5861 5861 5862 5862 5862 5863 5863 5863 5863 5863 5863 5864 5864 5864 5865 5865 5865 5866 5866 5867 5867 5868 5869 5869 5870 5870 5871 5871 5871 5872 5873 5873 5874 5875 5875 5876 5877 5877 5878
5859 5859 5860 5860 5860 5860 5861 5861 5862 5862 5862 5862 5862 5863 5863 5863 5863 5864 5864 5864 5865 5865 5866 5866 5866 5867 5868 5868 5869 5869 5869 5869 5870 5870 5871 5871 5872 5873 5873 5874 5875 5875 5876
5859 5859 5859 5859 5859 5860 5860 5860 5861 5861 5861 5862 5862 5862 5862 5862 5862 5863 5863 5863 5864 5864 5865 5865 5865 5866 5866 5867 5867 5867 5867 5867 5867 5868 5868 5869 5870 5870 5871 5871 5872 5873 5873
5858 5858 5858 5859 5859 5859 5859 5859 5860 5860 5861 5861 5861 5861 5861 5861 5862 5862 5862 5862 5863 5863 5863 5864 5864 5864 5865 5865 5865 5865 5865 5866 5865 5866 5866 5866 5867 5868 5868 5868 5869 5870 5870
5857 5857 5858 5858 5858 5858 5858 5859 5859 5859 5860 5860 5860 5860 5860 5860 5861 5861 5861 5861 5861 5862 5862 5862 5863 5863 5863 5863 5863 5863 5863 5863 5863 5863 5863 5864 5865 5865 5866 5866 5867 5867 5867
5856 5857 5857 5857 5857 5858 5858 5858 5858 5858 5859 5859 5859 5859 5859 5859 5859 5859 5859 5859 5860 5860 5861 5861 5861 5861 5861 5861 5861 5861 5861 5861 5861 5861 5861 5861 5862 5863 5863 5864 5864 5864 5864
5856 5856 5856 5856 5857 5857 5857 5858 5858 5858 5858 5858 5858 5858 5858 5858 5858 5858 5858 5858 5858 5859 5859 5859 5859 5859 5859 5859 5860 5860 5860 5859 5859 5859 5858 5859 5859 5860 5861 5861 5861 5862 5862
5855 5855 5855 5856 5856 5856 5856 5857 5857 5857 5857 5857 5857 5857 5857 5857 5857 5857 5857 5857 5857 5857 5857 5857 5857 5858 5858 5858 5858 5858 5858 5858 5857 5857 5857 5857 5857 5858 5858 5858 5859 5859 5859
5854 5854 5854 5855 5855 5855 5855 5856 5856 5856 5856 5856 5856 5856 5856 5856 5856 5856 5856 5856 5856 5856 5856 5855 5855 5856 5856 5856 5856 5856 5856 5856 5856 5855 5855 5856 5856 5856 5856 5856 5856 5856 5856
5853 5853 5853 5854 5854 5854 5854 5855 5855 5855 5855 5855 5855 5855 5855 5855 5855 5855 5855 5855 5855 5855 5854 5854 5854 5854 5854 5854 5854 5854 5854 5854 5854 5853 5854 5854 5854 5854 5853 5853 5853 5854 5854
5852 5852 5852 5853 5853 5853 5853 5853 5854 5854 5854 5854 5854 5854 5854 5854 5854 5854 5854 5853 5853 5853 5853 5853 5853 5852 5852 5852 5852 5851 5851 5851 5851 5851 5851 5851 5851 5851 5851 5851 5851 5851 5851
5851 5851 5851 5851 5852 5852 5852 5852 5852 5852 5852 5852 5853 5853 5853 5853 5853 5852 5852 5852 5852 5852 5852 5851 5851 5851 5850 5850 5850 5850 5849 5849 5849 5849 5849 5849 5849 5848 5848 5848 5848 5848 5848
5849 5849 5850 5850 5850 5851 5851 5851 5851 5851 5851 5851 5851 5851 5851 5851 5851 5851 5851 5850 5850 5850 5849 5849 5849 5849 5849 5848 5848 5848 5847 5847 5847 5846 5846 5846 5846 5846 5845 5845 5845 5845 5845
5847 5848 5848 5849 5849 5849 5849 5849 5849 5849 5849 5850 5850 5850 5850 5849 5849 5849 5849 5848 5848 5847 5847 5847 5846 5846 5846 5845 5845 5845 5844 5844 5844 5843 5843 5843 5843 5842 5842 5842 5842 5841 5841
5845 5846 5846 5847 5847 5847 5848 5848 5847 5848 5848 5848 5848 5848 5848 5847 5847 5847 5846 5846 5845 5845 5845 5844 5844 5844 5843 5843 5842 5842 5841 5841 5841 5840 5840 5840 5839 5839 5839 5839 5839 5838 5838
5844 5844 5845 5845 5845 5846 5846 5846 5846 5846 5846 5846 5846 5846 5846 5845 5845 5844 5844 5843 5843 5842 5842 5842 5841 5841 5840 5840 5839 5839 5838 5838 5837 5837 5836 5836 5836 5835 5835 5835 5835 5835 5835
5842 5842 5843 5843 5843 5844 5844 5844 5844 5844 5844 5844 5844 5843 5843 5843 5842 5842 5841 5841 5840 5840 5839 5839 5838 5838 5837 5837 5836 5836 5835 5834 5833 5833 5832 5832 5832 5831 5831 5831 5831 5831 5831
5839 5840 5840 5841 5841 5842 5842 5842 5842 5842 5842 5841 5841 5841 5840 5840 5840 5839 5838 5838 5837 5837 5836 5836 5835 5834 5833 5833 5833 5832 5831 5831 5829 5829 5828 5828 5827 5827 5827 5827 5827 5827 5827
5837 5837 5838 5838 5838 5839 5839 5839 5840 5839 5839 5839 5838 5838 5837 5837 5837 5836 5835 5835 5834 5834 5833 5832 5831 5831 5830 5829 5829 5828 5827 5827 5825 5825 5824 5823 5823 5823 5823 5822 5822 5822 5822
5833 5834 5835 5835 5836 5836 5836 5837 5837 5837 5837 5836 5836 5835 5834 5834 5833 5833 5832 5831 5831 5830 5829 5829 5828 5827 5826 5825 5824 5823 5823 5822 5821 5821 5820 5819 5818 5818 5818 5818 5818 5817 5818
5830 5831 5831 5831 5832 5833 5833 5833 5833 5833 5833 5833 5832 5832 5831 5831 5830 5829 5828 5828 5827 5826 5825 5824 5823 5823 5822 5821 5820 5819 5818 5817 5816 5816 5815 5815 5814 5813 5813 5813 5813 5812 5812
5827 5827 5828 5828 5828 5829 5829 5830 5830 5830 5830 5829 5829 5828 5828 5827 5826 5826 5825 5824 5823 5822 5821 5820 5819 5818 5817 5816 5815 5814 5813 5812 5811 5811 5810 5810 5809 5809 5808 5808 5808 5807 5807